Hyannis, MA

12:10 PM EDT on May 27, 2018 (GMT -0400)
Barnstable Municipal-Boardman-Polando Field

Weather History for KHYA - February, 2012

Change the Weather History Date:

Thursday, February 9, 2012

  Actual Average Record
Temperature  
Mean Temperature 33 °F -  
Max Temperature 42 °F 36 °F 55 °F (1949)
Min Temperature 24 °F 19 °F -12 °F (1934)
Degree Days  
Heating Degree Days 32    
Moisture  
Dew Point 23 °F    
Average Humidity 72    
Maximum Humidity 100    
Minimum Humidity 37    
Precipitation  
Precipitation 0.00 in - - ()
Sea Level Pressure  
Sea Level Pressure 30.02 in    
Wind  
Wind Speed 5 mph (NNW)    
Max Wind Speed 13 mph    
Max Gust Speed 22 mph    
Visibility 8 miles    
Events Snow    
Averages and records for this station are not official NWS values.
T = Trace of Precipitation, MM = Missing Value Source: NWS Daily Summary

Daily Weather History Graph

Daily Weather History Graph

Search for Another Location

Airport or City:

Astronomy

Feb. 09, 2012 Rise Set
Actual Time 6:44 AM EST 5:06 PM EST
Civil Twilight 6:16 AM EST 5:35 PM EST
Nautical Twilight 5:43 AM EST 6:08 PM EST
Astronomical Twilight 5:10 AM EST 6:40 PM EST
Moon 7:34 PM EST (2/9) 7:16 AM EST (2/9)
Length of Visible Light 11h 19m
Length of Day
10h 21m
Waning Gibbous, 96% of the Moon is Illuminated
Feb 9
Waning Gibbous
Feb 14
Last Quarter
Feb 21
New
Feb 29
First Quarter
Mar 8
Full

Hourly Weather History & Observations

Time (EST) Temp. Windchill Dew Point Humidity Pressure Visibility Wind Dir Wind Speed Gust Speed Precip Events Conditions
12:56 AM 35.1 °F 30.1 °F 27.0 °F 72% 30.05 in 10.0 mi NNW 5.8 mph - N/A   Overcast
1:38 AM 33.8 °F 27.0 °F 26.6 °F 75% 30.05 in 2.5 mi NNW 8.1 mph - 0.00 in Snow Light Snow
1:48 AM 32.0 °F 25.6 °F 26.6 °F 80% 30.04 in 1.8 mi NW 6.9 mph - 0.00 in Snow Light Snow
1:56 AM 30.9 °F 26.2 °F 27.0 °F 85% 30.05 in 1.2 mi NNW 4.6 mph - 0.00 in Snow Light Snow
2:13 AM 30.2 °F 26.7 °F 28.4 °F 93% 30.04 in 3.0 mi North 3.5 mph - 0.00 in Snow Light Snow
2:25 AM 30.2 °F 26.7 °F 28.4 °F 93% 30.03 in 6.0 mi NNE 3.5 mph - 0.00 in Snow Light Snow
2:56 AM 30.9 °F 27.5 °F 28.9 °F 92% 30.01 in 5.0 mi NNE 3.5 mph - 0.00 in Snow Light Snow
3:07 AM 30.2 °F 26.7 °F 28.4 °F 93% 30.00 in 5.0 mi North 3.5 mph - 0.00 in Snow Light Snow
3:56 AM 30.9 °F 26.2 °F 28.9 °F 92% 29.99 in 8.0 mi North 4.6 mph - 0.00 in   Overcast
4:08 AM 30.2 °F - 28.4 °F 93% 29.98 in 10.0 mi Calm Calm - N/A   Mostly Cloudy
4:56 AM 30.9 °F - 28.9 °F 92% 29.98 in 10.0 mi Calm Calm - N/A   Overcast
5:56 AM 30.9 °F - 30.0 °F 96% 29.98 in 10.0 mi Calm Calm - N/A   Overcast
6:56 AM 28.0 °F - 27.0 °F 96% 29.99 in 10.0 mi Calm Calm - N/A   Partly Cloudy
7:56 AM 32.0 °F 28.7 °F 28.9 °F 88% 30.00 in 10.0 mi WNW 3.5 mph - N/A   Scattered Clouds
8:56 AM 35.1 °F 29.3 °F 24.1 °F 64% 30.00 in 10.0 mi WNW 6.9 mph - N/A   Clear
9:56 AM 37.0 °F 29.8 °F 23.0 °F 57% 29.99 in 10.0 mi NW 10.4 mph - N/A   Clear
10:56 AM 39.0 °F 31.4 °F 19.0 °F 45% 29.99 in 10.0 mi NW 12.7 mph 21.9 mph N/A   Clear
11:56 AM 39.9 °F 33.4 °F 17.1 °F 40% 29.98 in 10.0 mi NNW 10.4 mph - N/A   Clear
12:56 PM 42.1 °F 36.1 °F 19.9 °F 41% 29.96 in 10.0 mi North 10.4 mph - N/A   Clear
1:56 PM 42.1 °F 37.1 °F 19.9 °F 41% 29.97 in 10.0 mi NNE 8.1 mph - N/A   Clear
2:56 PM 42.1 °F 37.7 °F 19.9 °F 41% 29.98 in 10.0 mi NNE 6.9 mph - N/A   Clear
3:56 PM 42.1 °F - 17.1 °F 37% 29.99 in 10.0 mi Calm Calm - N/A   Clear
4:56 PM 39.9 °F - 19.9 °F 45% 30.00 in 10.0 mi Calm Calm - N/A   Clear
5:56 PM 32.0 °F - 19.9 °F 61% 30.03 in 10.0 mi Calm Calm - N/A   Clear
6:56 PM 28.0 °F - 19.9 °F 72% 30.04 in 10.0 mi Calm Calm - N/A   Clear
7:56 PM 26.1 °F - 18.0 °F 71% 30.05 in 10.0 mi Calm Calm - N/A   Clear
8:56 PM 25.0 °F - 18.0 °F 75% 30.07 in 10.0 mi Calm Calm - N/A   Clear
9:56 PM 24.1 °F - 19.0 °F 81% 30.08 in 10.0 mi Calm Calm - N/A   Clear
10:56 PM 32.0 °F 26.4 °F 19.9 °F 61% 30.09 in 10.0 mi West 5.8 mph - N/A   Clear
11:56 PM 25.0 °F - 17.1 °F 72% 30.10 in 10.0 mi Calm Calm - N/A   Clear